Hourly Data Report for May 07, 2012

All times are specified in Local Standard Time (LST). Add 1 hour to adjust for Daylight Saving Time where and when it is observed.

GANDER INTL A
NEWFOUNDLAND

48°56'13.000" N
54°34'05.000" W
151.20 m
8401703
71803
YQX

Download Data

Hourly Data (May 2012)
Hourly Data Report for May 7, 2012
Temp Definition
°C
Dew Point Temp Definition
°C
Rel Hum Definition
%
Wind Dir Definition
10's deg

Wind Spd Definition
km/h
Visibility Definition
km
Stn Press Definition
kPa
Hmdx Definition


Wind Chill Definition


Weather Definition


TIME
00:30 Legend Double Dagger 5.3 5.0 98 8 9 0.8 99.98     Fog
01:30 Legend Double Dagger 5.4 5.1 98 8 9 0.8 99.96     Drizzle,Fog
02:30 Legend Double Dagger 5.6 5.3 98 8 11 2.4 99.96     Drizzle,Fog
03:30 Legend Double Dagger 5.5 5.2 98 5 6 1.2 99.96     Drizzle,Fog
04:30 Legend Double Dagger 5.4 5.1 98 3 8 0.4 99.98     Drizzle,Fog
05:30 Legend Double Dagger 5.2 4.9 98 5 10 0.4 99.99     Drizzle,Fog
06:30 Legend Double Dagger 5.3 5.0 98 6 14 4.8 99.99     Drizzle,Fog
07:30 Legend Double Dagger 5.6 5.3 98 7 12 0.8 100.02     Drizzle,Fog
08:30 Legend Double Dagger 6.0 5.7 98 7 13 0.4 100.04     Drizzle,Fog
09:30 Legend Double Dagger 6.4 6.1 98 9 18 6.4 100.06     Drizzle,Fog
10:30 Legend Double Dagger 7.0 6.3 95 10 19 8.1 100.07     Rain Showers,Fog
11:30 Legend Double Dagger 8.1 6.7 91 8 15 10.0 100.06     Rain Showers
12:30 Legend Double Dagger 9.1 5.7 79 12 15 10.0 100.05     Rain Showers
13:30 Legend Double Dagger 10.2 5.0 70 12 19 10.0 100.03     Rain Showers
14:30 Legend Double Dagger 10.0 4.8 70 10 19 10.0 100.03     Rain Showers
15:30 Legend Double Dagger 10.3 3.8 64 11 21 10.0 100.03     LegendNANA
16:30 Legend Double Dagger 10.2 3.3 62 9 21 10.0 100.04     LegendNANA
17:30 Legend Double Dagger 9.3 3.1 65 10 26 10.0 100.04     Mostly Cloudy
18:30 Legend Double Dagger 8.6 3.1 68 9 23 10.0 100.09     LegendNANA
19:30 Legend Double Dagger 7.5 2.8 72 8 6 10.0 100.13     LegendNANA
20:30 Legend Double Dagger 7.1 2.0 70 11 11 10.0 100.16     Mostly Cloudy
21:30 Legend Double Dagger 6.7 2.4 74 13 11 10.0 100.15     LegendNANA
22:30 Legend Double Dagger 6.2 2.8 79 12 7 10.0 100.18     LegendNANA
23:30 Legend Double Dagger 5.4 3.6 88 13 9 10.0 100.17     Cloudy

Notes on Data Quality.

Legend

  • E = Estimated
  • M = Missing
  • NA = Not Available
  • ‡ = Partner data that is not subject to review by the National Climate Archives
Date modified: